Flag for U.S.A. Weather past 2 weeks in Baltimore, Maryland, U.S.A.

Now
75 °F

Broken clouds.


Feels Like: 78 °F
Forecast: 61 / 76 °F
Wind: 10 mph from West

Location: Baltimore-Washington International Airport

Current Time: Jul 29, 2014 at 3:17:38 PM

Latest Report: Jul 29, 2014 at 2:54 PM


Visibility: 10 mi

Pressure: 29.92 "Hg

Humidity: 43%

Dew point: 51 °F

Location of BaltimoreLocation

Historic Weather in Baltimore — Graph

°F

Baltimore temperature yesterday

Maximum temperature yesterday: 86 °F (at 2:54 PM)
Minimum temperature yesterday: 68 °F (at 11:54 PM)
Average temperature yesterday: 76 °F

Past Weeks' High & Low Weather Summary

 TemperatureHumidityPressure
High93 °F (Jul 23, 4:54 PM)97% (Jul 15, 2:54 AM)30.23 "Hg (Jul 15, 2:54 AM)
Low57 °F (Jul 25, 5:54 AM)33% (Jul 28, 2:54 PM)29.57 "Hg (Jul 28, 4:54 AM)
Average75 °F69%29.96 "Hg
* Reported Jul 14 1:54 PM — Jul 29 1:54 PM, Baltimore, Weather by CustomWeather, © 2014

Note: Actual official high and low records may vary slightly from our data, if they occured in-between our weather recording intervals... More about our weather records

Advertising

Baltimore weather history for previous 24 hours

 ConditionsComfort  
Time TempWeatherWind HumidityBarometerVisibility
1:54 PM
Jul 29
72 °FBroken clouds.9 mph46%29.92 "Hg10 mi
12:54 PM71 °FMore clouds than sun.10 mph47%29.91 "Hg10 mi
11:54 AM70 °FMore clouds than sun.6 mph51%29.91 "Hg10 mi
10:54 AM71 °FPartly sunny.7 mph53%29.92 "Hg10 mi
9:54 AM67 °FBroken clouds.7 mph59%29.92 "Hg10 mi
8:54 AM65 °FBroken clouds.8 mph63%29.92 "Hg10 mi
7:54 AM63 °FMostly cloudy.7 mph75%29.91 "Hg10 mi
6:54 AM61 °FPassing clouds.7 mph87%29.90 "Hg10 mi
5:54 AM60 °FPassing clouds.3 mph86%29.87 "Hg10 mi
4:54 AM61 °FClear.6 mph87%29.85 "Hg10 mi
3:54 AM63 °FPassing clouds.3 mph81%29.84 "Hg10 mi
2:54 AM63 °FClear.7 mph81%29.83 "Hg10 mi
1:54 AM65 °FClear.6 mph78%29.83 "Hg10 mi
12:54 AM66 °FPassing clouds.6 mph81%29.81 "Hg10 mi
11:54 PM
Jul 28
68 °FPassing clouds.8 mph73%29.81 "Hg10 mi
10:54 PM70 °FPassing clouds.10 mph71%29.80 "Hg10 mi
9:54 PM71 °FPartly cloudy.8 mph68%29.79 "Hg10 mi
8:54 PM72 °FBroken clouds.16 mph66%29.75 "Hg10 mi
7:54 PM76 °FPartly sunny.14 mph54%29.71 "Hg10 mi
6:54 PM79 °FPartly sunny.10 mph48%29.69 "Hg10 mi
5:54 PM82 °FPartly sunny.18 mph43%29.68 "Hg10 mi
4:54 PM80 °FPartly sunny.21 mph45%29.66 "Hg10 mi
3:54 PM84 °FBroken clouds.17 mph38%29.65 "Hg10 mi
Weather by CustomWeather, © 2014

See weather overviewHow to use our weather pages